Location: Unspecified
(38.9820°N, 94.4650°W)
Time: 07:54:00
(UTC-05:00)

Resurs 1-4 Rocket - Visible Passes

Search period start: 03 September 2015 00:00
Search period end: 13 September 2015 00:00
Orbit: 799 x 815 km, 98.4° (Epoch: 01 September)

Date Brightness Start Highest point End Pass type
(mag) Time Alt. Az. Time Alt. Az. Time Alt. Az.
03 Sep 4.7 03:13:05 10° ENE 03:14:45 12° E 03:16:21 11° ESE visible
03 Sep 2.0 04:50:02 10° N 04:55:19 77° WNW 04:57:26 38° SSW visible
04 Sep 2.4 04:25:34 10° NNE 04:30:49 63° E 04:32:33 41° SSE visible
04 Sep 3.7 06:06:56 10° NNW 06:10:14 16° WNW 06:13:20 10° W visible
05 Sep 3.3 04:01:22 10° NNE 04:06:13 37° E 04:07:40 31° SE visible
05 Sep 3.2 05:41:33 10° NNW 05:45:57 27° WNW 05:48:44 17° WSW visible
06 Sep 4.0 03:37:33 10° NE 03:41:30 22° E 03:42:47 20° ESE visible
06 Sep 2.5 05:16:36 10° N 05:21:36 43° WNW 05:23:52 28° WSW visible
07 Sep 4.6 03:14:38 10° ENE 03:16:39 12° E 03:17:53 12° ESE visible
07 Sep 2.0 04:51:54 10° N 04:57:11 74° WNW 04:58:58 42° SSW visible
08 Sep 2.3 04:27:25 10° NNE 04:32:42 67° E 04:34:05 47° SSE visible
08 Sep 3.8 06:08:54 10° NNW 06:12:04 16° WNW 06:15:01 10° W visible
09 Sep 3.2 04:03:11 10° NNE 04:08:06 39° E 04:09:12 35° SE visible
09 Sep 3.2 05:43:28 10° NNW 05:47:48 25° WNW 05:50:16 18° WSW visible
10 Sep 4.0 03:39:19 10° NE 03:43:24 23° E 03:44:18 22° ESE visible
10 Sep 2.5 05:18:29 10° N 05:23:28 41° WNW 05:25:23 30° WSW visible
11 Sep 4.6 03:16:15 10° ENE 03:18:34 13° E 03:19:24 13° E visible
11 Sep 2.0 04:53:46 10° N 04:59:03 70° WNW 05:00:30 48° SW visible
12 Sep 2.2 04:29:16 10° NNE 04:34:34 70° ESE 04:35:36 55° SSE visible
12 Sep 3.8 06:10:54 10° NNW 06:13:55 15° WNW 06:16:41 10° W visible
